2022 WA4
ephemeris date magn radius delta ra dec elong phase
Today15 Oct 202531.81.204 AU1.474 AU16h56m-25°36'54.2°42.2°
2022 WA4 - 2025-10-15
astro.vanbuitenen.nl


 
-1 year
-1 month
-1 day
Now
+1 day
+1 month
+1 year

The interactive orbit chart above shows the body's path through the solar system and its position at the given date. Green and blue lines are shown perpendicular to the ecliptic plane: Green if the path is above the ecliptic plane, blue if it is below. (Left-click and drag to rotate the view; Right-click and drag to move the view; Use scroll wheel to zoom in our out.)

The orbital elements of 2022 WA4 are:

            e (Eccentricity)                : 0.1279790
            a (Semimajor axis)              : 1.0677462
            i (Inclination)                 : 4.21445
            Ω (Longitude of ascending node) : 58.70647
            ω (Argument of perihelion)      : 63.58284
            M (Mean anomaly)                : 29.00415
            Epoch                           : 2025 May 05

            L (Longitude of perihelion)     : 122.22744
            B (Latitude of perihelion)      : 3.77370
            P (Orbital period in years)     : 1.10            
        

The light curve chart below shows the estimated development of the minor planet's magnitude.


The all-sky chart below shows the path of the minor planet over the same period as the light curve. The current position is marked yellow.





The following chart shows the path of the minor planet in the next few days. The field of view is optimized for (~10x50) binoculars and finderscopes. A more printer-friendly version of the same chart can be found below.




Ephemerides:
Date       Time       RA (2000)    DEC (2000)    delta   radius  elong  phase   PA    magn
2025-10-15 00:00 UT   16 56 33.9   -25 36 55     1.474    1.204   54.2   42.2    98   31.8 
2025-10-15 16:40 UT   16 59 05.2   -25 41 09     1.477    1.204   54.1   42.1    98   31.8 
2025-10-16 00:00 UT   17 00 11.8   -25 42 57     1.478    1.204   54.1   42.1    98   31.8 
2025-10-17 00:00 UT   17 03 50.0   -25 48 38     1.482    1.204   53.9   42.0    98   31.8 
2025-10-18 00:00 UT   17 07 28.5   -25 53 59     1.486    1.204   53.7   41.8    97   31.8 
2025-10-19 00:00 UT   17 11 07.1   -25 58 60     1.491    1.204   53.6   41.7    97   31.8 
2025-10-20 00:00 UT   17 14 46.0   -26 03 40     1.495    1.204   53.4   41.6    97   31.8 
2025-10-21 00:00 UT   17 18 25.0   -26 08 00     1.498    1.204   53.2   41.5    96   31.8 
2025-10-22 00:00 UT   17 22 04.2   -26 12 00     1.502    1.204   53.1   41.3    96   31.8 
2025-10-23 00:00 UT   17 25 43.5   -26 15 39     1.506    1.204   52.9   41.2    96   31.8 
2025-10-24 00:00 UT   17 29 23.0   -26 18 58     1.510    1.204   52.7   41.1    95   31.8 
2025-10-25 00:00 UT   17 33 02.7   -26 21 56     1.514    1.204   52.5   41.0    95   31.8 


    Terminology:
            
    delta:  distance between minor planet and earth in AU
    radius: distance between minor planet and sun in AU
    magn:   magnitude (brightness) estimate    
    ra:     right ascension in hours (24h = 360deg)
    dec:    declination in degrees
    elong:  elongation in degrees (angle sun-earth-minor planet)    
    phase:  phase angle in degrees (angle sun-minor planet-earth)        
    AU:     Astronomical Unit (mean distance between earth and sun: 149597870.7 km
    

Orbital elements provided by the MPC (Minor Planet Center).
Calculations by a modified version of AAPlus, a C# implementation of the AA+ project by PJ Naughter from the algorithms presented in the book "Astronomical Algorithms" by Jean Meeus.
NGC2000 dso catalog and star labels from VizieR as provided by the Strasbourg astronomical Data Center.
Tycho2 catalog from the ESO archive.